Flag for Canada Weather past 2 weeks in Caledon, Ontario, Canada

Now
43 °F

Partly sunny.


Feels Like: 40 °F
Forecast: 41 / 62 °F
Wind: 5 mph from Northwest

Location: Borden

Current Time: Apr 27, 2015 at 9:43:14 PM

Latest Report: Apr 27, 2015 at 9:00 PM


Visibility: 9 mi

Pressure: 30.01 "Hg

Humidity: 71%

Dew point: 34 °F

Location of CaledonLocation

Historic Weather in Caledon — Graph

°F

Caledon temperature yesterday

Maximum temperature yesterday: 48 °F (at 4:00 PM)
Minimum temperature yesterday: 25 °F (at 3:00 AM)
Average temperature yesterday: 40 °F

Past Weeks' High & Low Weather Summary

 TemperatureHumidityPressure
High73 °F (Apr 13, 2:00 PM)100% (Apr 14, 2:00 AM)30.44 "Hg (Apr 14, 2:00 AM)
Low18 °F (Apr 25, 5:00 AM)18% (Apr 19, 7:00 PM)29.31 "Hg (Apr 20, 4:48 PM)
Average43 °F71%29.92 "Hg
* Reported Apr 12 8:00 PM — Apr 27 8:00 PM, Caledon, Weather by CustomWeather, © 2015

Note: Actual official high and low records may vary slightly from our data, if they occured in-between our weather recording intervals... More about our weather records

Advertising

Caledon weather history for previous 24 hours

 ConditionsComfort  
Time TempWeatherWind HumidityBarometerVisibility
8:00 PM
Mon, Apr 27
46 °FSunny.9 mph66%30.00 "Hg9 mi
7:00 PM48 °FSunny.12 mph58%29.99 "Hg9 mi
6:00 PM50 °FSunny.14 mph58%29.97 "Hg9 mi
5:00 PM52 °FSunny.20 mph54%29.95 "Hg9 mi
4:00 PM52 °FPassing clouds.16 mph58%29.94 "Hg9 mi
3:00 PM52 °FScattered clouds.9 mph62%29.94 "Hg9 mi
2:00 PM48 °FPartly sunny.10 mph71%29.94 "Hg9 mi
1:01 PM43 °FLight rain. Overcast.14 mph81%29.92 "Hg9 mi
12:00 PM41 °FOvercast.13 mph87%29.93 "Hg9 mi
11:54 AM43 °FOvercast.13 mph81%29.91 "Hg9 mi
11:00 AM39 °FLow clouds.10 mph93%29.92 "Hg9 mi
10:00 AM39 °FLow clouds.9 mph93%29.91 "Hg9 mi
9:00 AM37 °FLow clouds.9 mph100%29.89 "Hg9 mi
8:00 AM37 °FOvercast.10 mph93%29.88 "Hg9 mi
7:58 AM37 °FOvercast.9 mph93%29.87 "Hg9 mi
7:00 AM37 °FLow clouds.10 mph93%29.87 "Hg9 mi
6:00 AM37 °FOvercast.9 mph93%29.85 "Hg9 mi
5:00 AM37 °FOvercast.8 mph93%29.85 "Hg9 mi
4:00 AM37 °FPassing clouds.8 mph93%29.84 "Hg9 mi
3:52 AM37 °FLow clouds.10 mph93%29.82 "Hg9 mi
3:00 AM37 °FOvercast.7 mph100%29.83 "Hg9 mi
2:55 AM37 °FOvercast.7 mph100%29.81 "Hg9 mi
2:00 AM39 °FLight rain. Low clouds.6 mph93%29.84 "Hg9 mi
1:00 AM39 °FLight rain. Overcast.8 mph93%29.84 "Hg9 mi
12:00 AM43 °FOvercast.9 mph76%29.83 "Hg9 mi
11:00 PM
Sun, Apr 26
45 °FOvercast.10 mph66%29.83 "Hg9 mi
10:00 PM45 °FOvercast.9 mph66%29.84 "Hg9 mi
9:00 PM45 °FOvercast.7 mph61%29.85 "Hg9 mi
Weather by CustomWeather, © 2015

See weather overviewHow to use our weather pages